SCP
0 0 0 0 0 0 0 0 0 0 0 0 0 0 0 0 0 0 0 0 0 -0 -0 0 0 0 0 0 0 0 0 -0 -0 -0 -0 -0 -0 -0 0 -0 0 0 0 -0
0 0 0 0 0 0 0 0 0 0 0 0 0 0 0 0 0 0 0 0 0 0 -0 -0 -0 -0 -0 -0 -0 -0 0 -0 -0 -0 -0 -0 -0 -0 -0 -0 -0 -0 0 0
0 0 0 0 0 0 0 0 0 0 0 0 0 0 0 0 0 0 0 0 0 0 0 -0 -0 -0 -0 -0 -0 -0 -0 -0 -0 -0 -0 -0 0 -0 -0 -0 -0 -0 -0 -0
0 0 0 0 0 0 0 0 0 0 0 0 0 0 0 0 0 0 0 0 0 0 -0 -0 -0 -0 -0 -0 -0 -0 -0 -0 -0 -0 -0 0 0 0 0 -0 0 0 0 0
0 0 0 0 0 0 0 0 0 0 0 0 0 0 0 0 0 0 0 0 0 -0 -0 -0 -0 -0 -0 -0 -0 -0 -0 0 -0 0 -0 -0 -0 -0 0 0 0 0 0 0
0 0 0 0 0 0 0 0 0 0 0 0 0 0 0 0 0 0 0 0 0 0 0 0 0 0 0 -0 -0 0 0 0 0 0 0 0 0 0 -0 -0 -0 -0 0 0
0 0 0 0 0 0 0 0 0 0 0 0 0 0 0 0 0 0 0 0 0 0 0 0 0 0 0 0 0 0 0 0 0 0 0 0 0 0 -0 -0 -0 0 0 0
0 0 0 0 0 0 0 0 0 0 0 0 0 0 0 0 0 0 0 0 0 0 0 0 0 0 0 0 0 0 0 0 0 0 0 0 0 0 0 -0 -0 0 0 0
0 0 0 0 0 0 0 0 0 0 0 0 0 0 0 0 0 0 0 0 0 0 0 0 0 0 0 0 0 0 0 0 0 0 0 0 0 0 0 0 0 0 0 0
0 0 0 0 0 0 0 0 0 0 0 0 0 0 0 0 0 0 0 0 0 0 0 0 0 0 0 0 0 0 0 0 0 0 0 0 0 0 0 0 0 0 0 0
0 0 0 0 0 0 0 0 0 0 0 0 0 0 0 0 0 0 0 0 0 0 0 0 0 0 0 0 0 0 0 0 0 0 0 0 0 0 0 0 0 0 0 0
0 0 0 0 0 0 0 0 0 0 0 0 0 0 0 0 0 0 0 0 0 0 0 0 0 0 0 0 0 0 0 0 0 0 0 0 0 0 0 0 0 0 0 0
0 0 0 0 0 0 0 0 0 0 0 0 0 0 0 0 0 0 0 0 0 0 0 0 0 0 0 0 0 0 0 0 0 0 0 0 0 0 0 0 0 0 0 0
0 0 0 0 0 0 0 0 0 0 0 0 0 0 0 0 0 0 0 0 0 0 0 0 0 0 0 0 0 0 0 0 0 0 0 0 0 0 0 0 0 0 0 0
0 0 0 0 0 0 0 0 0 0 0 0 0 0 0 0 0 0 0 0 0 0 0 0 0 0 0 0 0 0 0 0 0 0 0 0 0 0 0 0 0 0 0 0
0 0 0 0 0 0 0 0 0 0 0 0 0 0 0 0 0 0 0 0 0 0 0 -0 0 0 0 0 0 0 0 0 0 0 0 0 0 0 0 0 0 0 0 0
0 0 0 0 0 0 0 0 0 0 0 0 0 0 0 0 0 0 0 0 0 0 -0 0 0 0 0 0 0 0 0 0 0 0 0 0 0 0 0 0 0 0 0 0
0 0 0 0 0 0 0 0 0 0 0 0 0 0 0 0 0 -0 -0 -0 -0 -0 -0 0 0 0 0 0 0 0 0 0 0 0 0 0 0 0 0 0 0 0 0 0
0 0 0 0 0 0 0 0 0 0 0 0 0 0 0 0 -0 -0 -0 -0 0 -0 -0 -0 0 0 0 0 0 0 0 0 0 0 0 0 0 0 0 0 0 0 0 0
0 0 0 0 0 0 0 0 0 0 0 0 0 0 0 0 -0 -0 -0 0 0 0 0 0 0 0 0 0 0 0 0 0 0 0 0 0 0 0 0 0 0 0 0 -0
0 0 0 0 0 0 0 0 0 0 0 0 0 0 0 -0 -0 -0 0 -0 -0 0 0 0 0 0 0 0 0 0 0 0 0 0 0 0 0 0 0 -0 0 0 0 0
0 0 0 0 0 0 0 0 0 0 0 0 0 0 0 -0 0 0 0 -0 -0 0 -0 0 0 -0 0 0 0 0 0 0 0 0 0 0 0 0 0 0 -0 -0 0 -0
0 0 0 0 0 0 0 0 0 0 0 0 0 0 0 0 0 0 0 0 -0 0 0 0 0 0 0 0 0 0 0 0 0 0 0 0 0 0 0 0 0 -0 -0 -0
0 0 0 0 0 0 0 0 0 0 0 0 0 0 0 0 0 0 0 0 -0 0 0 0 0 0 0 0 0 0 0 0 0 0 -0 -0 0 0 0 0 0 0 0 -0
0 0 0 0 0 0 0 0 0 0 0 0 0 0 0 0 0 0 0 0 0 0 0 0 0 0 0 0 0 0 0 0 0 0 0 0 0 0 0 0 0 -0 -0 -0
0 0 0 0 0 0 0 0 0 0 0 0 0 0 0 0 0 0 0 0 0 0 0 0 0 0 0 0 0 0 0 0 0 0 0 0 0 0 0 0 0 -0 0 0
0 0 0 0 0 0 -0 -0 0 0 0 0 0 0 0 0 0 0 0 0 0 0 0 0 0 0 0 0 0 0 0 0 0 0 0 0 0 0 0 0 0 0 0 0
Wind_Speed_500mb
34 39 39 38 40 46 44 42 27 43 41 48 39 17 5 5 7 5 13 19 20 21 21 26 32 40 41 46 55 59 64 67 65 62 62 65 66 64 57 49 52 58 59 61
44 45 37 35 37 42 42 43 47 51 54 25 4 1 4 10 14 11 21 27 29 29 29 28 29 36 47 49 50 54 58 63 68 76 75 70 72 72 71 69 66 60 61 62
43 32 36 32 40 41 49 48 48 45 25 11 2 9 15 14 19 18 20 29 36 40 41 39 40 52 54 58 60 58 56 56 64 74 80 83 81 80 76 78 76 72 71 66
30 24 45 33 20 24 35 26 3 10 8 7 9 20 21 23 28 28 23 29 39 45 49 49 55 63 64 70 71 70 69 71 73 75 80 85 88 89 89 87 86 86 81 77
26 34 41 51 40 32 25 31 15 17 8 5 12 16 32 31 36 37 35 36 42 60 63 69 70 72 80 87 88 87 85 83 83 84 83 84 88 92 97 101 100 98 97 90
10 17 27 13 4 5 2 13 16 6 7 15 11 19 24 41 28 33 43 51 60 70 74 72 76 82 92 95 93 95 93 96 97 96 97 97 97 99 100 102 111 111 108 105
24 26 21 8 8 7 9 6 16 20 32 31 21 34 46 40 38 44 53 63 64 66 70 72 78 78 89 95 98 88 88 99 102 103 111 117 118 116 114 113 113 116 121 117
2 6 20 12 11 11 3 32 34 39 42 38 38 40 39 41 45 43 48 58 67 66 71 80 83 86 98 108 98 96 97 104 110 110 109 112 114 124 124 121 118 120 120 125
16 13 6 18 20 40 50 49 54 45 45 34 38 39 39 36 33 45 51 55 67 75 83 89 96 94 94 111 101 109 115 120 115 106 103 100 96 100 93 104 104 114 105 102
21 38 43 62 65 68 67 60 57 45 45 40 35 29 35 39 46 51 58 67 72 80 90 102 106 105 101 105 103 106 110 112 103 93 93 88 84 81 81 82 83 84 81 85
29 41 52 63 66 71 71 60 44 45 40 37 34 36 38 43 51 54 57 61 67 83 93 101 97 97 95 97 95 95 93 91 88 84 83 82 80 79 78 80 77 81 82 73
30 53 44 60 64 59 49 44 37 40 38 38 36 38 45 48 50 55 62 70 79 84 86 90 91 95 95 89 80 82 85 83 81 83 84 83 84 88 79 77 79 83 89 91
60 80 67 78 71 59 55 53 41 38 36 33 37 39 44 51 55 63 69 73 74 76 78 83 88 92 90 77 69 72 78 80 81 79 81 82 82 82 87 81 71 73 74 78
71 61 56 58 36 45 42 39 32 29 31 33 36 36 41 50 58 65 71 70 68 70 75 80 84 83 71 67 68 70 74 78 81 81 80 80 81 81 80 78 78 76 60 53
70 62 66 54 48 41 34 33 32 30 32 35 35 39 45 52 61 68 67 61 61 67 73 75 76 78 72 70 69 73 75 79 79 81 82 82 83 83 81 78 74 76 69 56
51 47 44 36 35 35 31 29 29 29 31 35 38 42 47 54 59 61 55 51 59 67 68 70 75 79 75 69 68 69 70 71 71 75 78 79 77 73 72 69 66 64 61 47
28 27 32 33 31 30 29 28 27 30 35 39 42 47 53 55 56 53 45 46 50 55 57 64 71 70 68 64 61 61 65 70 64 64 66 70 70 70 67 60 55 49 45 35
32 34 30 28 27 28 27 27 30 35 39 43 46 48 51 49 50 45 41 44 46 48 53 59 61 65 61 56 55 58 56 53 54 54 53 54 57 58 51 45 43 43 42 39
27 28 27 25 25 27 28 30 34 39 41 45 47 48 47 44 40 35 35 37 42 49 52 55 58 59 60 54 48 47 46 46 45 45 44 42 42 36 36 39 36 32 29 26
21 19 19 21 24 28 31 33 40 44 41 44 45 45 42 32 27 25 26 28 34 41 46 50 55 56 59 53 45 43 41 40 41 42 41 41 40 38 34 28 24 20 16 12
17 16 19 23 27 29 34 39 44 45 43 40 41 39 33 22 18 19 22 24 28 33 38 44 50 56 55 53 50 44 42 41 40 41 42 42 42 40 37 33 30 25 21 16
16 19 22 27 32 33 33 37 41 43 41 37 32 28 23 16 14 11 14 22 25 31 36 39 42 47 48 50 52 52 47 44 43 42 43 43 43 42 40 37 35 31 27 24
18 21 24 28 31 33 32 32 33 34 32 27 22 18 16 13 12 12 10 14 20 26 30 32 36 39 40 45 47 50 53 54 50 46 45 44 44 44 43 42 41 39 38 38
15 21 23 25 28 29 28 23 23 22 20 16 13 12 11 10 10 10 11 14 17 20 24 27 29 32 34 37 41 45 50 53 54 54 51 46 45 45 45 44 44 45 45 45
12 14 17 19 19 20 20 18 15 12 10 9 7 7 7 6 5 6 9 13 16 18 20 22 24 26 29 33 35 39 42 44 46 48 50 50 50 49 47 45 43 41 40 39
7 9 13 15 16 16 15 13 11 8 6 3 3 4 4 5 6 8 11 14 17 19 20 21 23 26 27 28 30 31 32 33 35 37 37 38 39 39 39 37 35 34 34 33
5 8 10 10 12 12 10 9 8 6 5 5 4 5 5 6 8 10 12 14 16 18 19 21 22 23 24 25 26 26 26 26 26 26 26 26 26 26 25 25 24 23 21 20
Wind_Direction_500mb
276 278 275 270 271 274 274 274 265 281 281 282 287 301 246 329 336 317 353 360 351 339 324 333 336 336 332 330 332 334 335 336 336 334 334 334 333 334 332 326 319 320 320 319
272 274 266 269 263 265 270 272 268 266 267 289 17 53 291 329 306 292 341 340 337 331 324 310 314 319 325 326 326 326 322 322 324 325 327 329 328 326 326 326 324 314 301 307
269 277 290 267 249 259 266 265 268 273 295 80 53 290 285 282 289 266 317 329 329 325 320 313 310 319 321 319 316 314 311 310 314 316 317 318 320 321 322 322 321 320 316 308
271 274 260 272 290 270 271 286 16 121 141 180 273 299 279 273 285 263 284 312 323 321 317 315 310 313 315 316 313 308 305 302 304 306 306 308 310 312 313 313 314 313 313 310
257 258 278 290 286 264 245 272 176 152 170 264 291 291 292 283 285 268 270 296 315 322 316 315 315 315 315 314 313 310 306 304 303 302 299 299 300 302 304 305 305 305 305 306
237 261 268 301 93 73 97 272 183 189 281 293 285 286 299 313 289 285 270 289 305 312 311 310 311 312 311 311 311 309 309 306 304 301 298 296 294 293 294 295 298 299 298 297
245 258 267 237 140 138 229 305 190 265 279 279 263 272 291 295 285 284 284 287 299 308 308 308 310 310 308 308 306 307 304 302 300 298 298 296 296 293 291 290 289 289 291 291
196 250 269 135 124 213 255 297 294 288 285 285 279 283 283 291 294 291 287 295 303 305 304 305 307 308 307 305 307 304 300 297 296 295 293 293 293 292 291 289 287 284 284 285
212 251 278 196 248 264 285 284 289 290 294 284 279 277 288 291 286 289 297 300 303 305 306 307 309 310 306 305 303 300 298 296 295 293 291 290 288 288 286 287 286 284 283 281
268 257 260 266 270 276 282 281 287 287 291 286 276 281 287 290 292 298 302 306 308 309 309 309 310 310 307 305 305 302 299 298 297 295 293 290 286 282 281 279 278 276 275 273
253 262 275 269 267 268 273 282 278 279 278 277 279 287 291 294 300 304 304 307 309 312 312 311 313 312 313 311 311 308 305 301 299 296 294 292 286 283 279 275 272 274 271 269
254 265 259 268 272 277 276 271 262 271 271 275 283 289 296 300 303 304 308 312 314 314 315 318 318 315 317 319 317 312 304 301 298 296 294 292 290 288 284 278 275 271 269 267
251 262 267 268 271 273 268 265 260 264 270 278 287 292 297 301 304 309 314 317 318 319 321 321 321 321 321 318 314 309 306 306 302 296 292 290 288 287 288 291 284 278 272 267
258 265 265 260 252 266 263 254 257 265 275 280 285 295 300 304 309 315 318 321 321 322 325 329 325 319 327 322 318 315 314 312 308 301 295 292 289 287 286 286 288 289 286 271
265 260 257 262 262 253 248 256 267 275 283 288 293 300 304 310 315 318 320 322 323 328 335 329 327 334 333 327 321 317 315 312 309 306 303 299 294 289 285 284 283 285 293 292
263 258 257 250 246 247 249 256 267 278 282 288 299 306 311 315 316 317 324 327 332 335 335 335 339 340 335 328 323 323 315 311 312 309 306 303 299 291 286 283 283 283 288 292
239 241 243 240 236 243 256 268 277 284 289 296 303 308 312 316 318 322 328 332 335 335 341 346 342 340 337 334 328 325 320 319 322 318 314 312 310 302 302 299 296 293 291 299
249 250 251 248 250 257 264 274 281 286 293 300 304 309 313 317 317 322 329 335 336 344 356 352 348 347 342 341 340 330 326 329 333 333 333 331 321 315 313 309 309 310 312 301
244 245 249 252 257 266 275 281 285 290 297 302 305 308 311 315 314 319 328 336 340 349 359 357 356 354 354 353 344 342 343 344 348 350 349 347 346 342 334 325 319 310 309 312
245 250 259 267 274 281 286 290 293 295 300 299 301 303 306 308 305 315 325 337 347 352 355 359 0 4 3 0 358 360 358 0 1 3 5 5 5 3 1 357 352 344 344 337
247 259 270 279 285 292 295 295 295 297 298 297 298 299 299 296 298 312 321 338 354 358 1 6 4 10 10 10 14 16 16 17 18 18 19 21 22 24 25 23 23 27 36 47
270 283 292 296 296 296 297 298 297 298 299 299 293 288 282 279 286 299 319 340 354 359 8 7 8 14 12 19 27 30 32 32 34 35 35 34 34 36 36 35 37 43 53 69
292 298 300 303 308 310 309 305 301 300 298 293 282 271 267 272 280 309 325 342 356 3 5 7 10 14 15 24 30 35 39 41 43 46 47 46 44 44 44 46 52 61 73 83
304 313 314 311 311 313 313 309 302 299 294 286 273 261 260 264 260 299 326 350 358 360 360 4 8 13 17 24 29 36 41 44 48 50 53 56 59 60 60 61 66 73 80 86
309 316 324 326 323 317 314 315 314 307 305 294 265 254 260 265 273 303 335 346 350 352 356 360 5 11 17 23 28 33 37 40 43 48 53 57 61 63 67 73 76 78 81 85
352 347 342 339 337 335 333 331 329 328 332 317 275 275 273 284 304 321 333 339 343 347 350 358 4 9 12 16 21 26 30 33 36 41 45 50 55 61 66 69 73 76 81 84
26 9 3 356 352 354 349 344 342 344 336 344 294 304 305 312 319 327 333 336 339 344 349 355 0 3 6 8 11 14 18 22 25 28 30 34 39 45 50 54 58 62 67 72
Wind_Speed_850mb
34 39 39 38 40 46 44 42 27 43 41 48 39 17 5 5 7 5 13 19 20 21 21 26 32 40 41 46 55 59 64 67 65 62 62 65 66 64 57 49 52 58 59 61
44 45 37 35 37 42 42 43 47 51 54 25 4 1 4 10 14 11 21 27 29 29 29 28 29 36 47 49 50 54 58 63 68 76 75 70 72 72 71 69 66 60 61 62
43 32 36 32 40 41 49 48 48 45 25 11 2 9 15 14 19 18 20 29 36 40 41 39 40 52 54 58 60 58 56 56 64 74 80 83 81 80 76 78 76 72 71 66
30 24 45 33 20 24 35 26 3 10 8 7 9 20 21 23 28 28 23 29 39 45 49 49 55 63 64 70 71 70 69 71 73 75 80 85 88 89 89 87 86 86 81 77
26 34 41 51 40 32 25 31 15 17 8 5 12 16 32 31 36 37 35 36 42 60 63 69 70 72 80 87 88 87 85 83 83 84 83 84 88 92 97 101 100 98 97 90
10 17 27 13 4 5 2 13 16 6 7 15 11 19 24 41 28 33 43 51 60 70 74 72 76 82 92 95 93 95 93 96 97 96 97 97 97 99 100 102 111 111 108 105
24 26 21 8 8 7 9 6 16 20 32 31 21 34 46 40 38 44 53 63 64 66 70 72 78 78 89 95 98 88 88 99 102 103 111 117 118 116 114 113 113 116 121 117
2 6 20 12 11 11 3 32 34 39 42 38 38 40 39 41 45 43 48 58 67 66 71 80 83 86 98 108 98 96 97 104 110 110 109 112 114 124 124 121 118 120 120 125
16 13 6 18 20 40 50 49 54 45 45 34 38 39 39 36 33 45 51 55 67 75 83 89 96 94 94 111 101 109 115 120 115 106 103 100 96 100 93 104 104 114 105 102
21 38 43 62 65 68 67 60 57 45 45 40 35 29 35 39 46 51 58 67 72 80 90 102 106 105 101 105 103 106 110 112 103 93 93 88 84 81 81 82 83 84 81 85
29 41 52 63 66 71 71 60 44 45 40 37 34 36 38 43 51 54 57 61 67 83 93 101 97 97 95 97 95 95 93 91 88 84 83 82 80 79 78 80 77 81 82 73
30 53 44 60 64 59 49 44 37 40 38 38 36 38 45 48 50 55 62 70 79 84 86 90 91 95 95 89 80 82 85 83 81 83 84 83 84 88 79 77 79 83 89 91
60 80 67 78 71 59 55 53 41 38 36 33 37 39 44 51 55 63 69 73 74 76 78 83 88 92 90 77 69 72 78 80 81 79 81 82 82 82 87 81 71 73 74 78
71 61 56 58 36 45 42 39 32 29 31 33 36 36 41 50 58 65 71 70 68 70 75 80 84 83 71 67 68 70 74 78 81 81 80 80 81 81 80 78 78 76 60 53
70 62 66 54 48 41 34 33 32 30 32 35 35 39 45 52 61 68 67 61 61 67 73 75 76 78 72 70 69 73 75 79 79 81 82 82 83 83 81 78 74 76 69 56
51 47 44 36 35 35 31 29 29 29 31 35 38 42 47 54 59 61 55 51 59 67 68 70 75 79 75 69 68 69 70 71 71 75 78 79 77 73 72 69 66 64 61 47
28 27 32 33 31 30 29 28 27 30 35 39 42 47 53 55 56 53 45 46 50 55 57 64 71 70 68 64 61 61 65 70 64 64 66 70 70 70 67 60 55 49 45 35
32 34 30 28 27 28 27 27 30 35 39 43 46 48 51 49 50 45 41 44 46 48 53 59 61 65 61 56 55 58 56 53 54 54 53 54 57 58 51 45 43 43 42 39
27 28 27 25 25 27 28 30 34 39 41 45 47 48 47 44 40 35 35 37 42 49 52 55 58 59 60 54 48 47 46 46 45 45 44 42 42 36 36 39 36 32 29 26
21 19 19 21 24 28 31 33 40 44 41 44 45 45 42 32 27 25 26 28 34 41 46 50 55 56 59 53 45 43 41 40 41 42 41 41 40 38 34 28 24 20 16 12
17 16 19 23 27 29 34 39 44 45 43 40 41 39 33 22 18 19 22 24 28 33 38 44 50 56 55 53 50 44 42 41 40 41 42 42 42 40 37 33 30 25 21 16
16 19 22 27 32 33 33 37 41 43 41 37 32 28 23 16 14 11 14 22 25 31 36 39 42 47 48 50 52 52 47 44 43 42 43 43 43 42 40 37 35 31 27 24
18 21 24 28 31 33 32 32 33 34 32 27 22 18 16 13 12 12 10 14 20 26 30 32 36 39 40 45 47 50 53 54 50 46 45 44 44 44 43 42 41 39 38 38
15 21 23 25 28 29 28 23 23 22 20 16 13 12 11 10 10 10 11 14 17 20 24 27 29 32 34 37 41 45 50 53 54 54 51 46 45 45 45 44 44 45 45 45
12 14 17 19 19 20 20 18 15 12 10 9 7 7 7 6 5 6 9 13 16 18 20 22 24 26 29 33 35 39 42 44 46 48 50 50 50 49 47 45 43 41 40 39
7 9 13 15 16 16 15 13 11 8 6 3 3 4 4 5 6 8 11 14 17 19 20 21 23 26 27 28 30 31 32 33 35 37 37 38 39 39 39 37 35 34 34 33
5 8 10 10 12 12 10 9 8 6 5 5 4 5 5 6 8 10 12 14 16 18 19 21 22 23 24 25 26 26 26 26 26 26 26 26 26 26 25 25 24 23 21 20
Wind_Direction_850mb
276 278 275 270 271 274 274 274 265 281 281 282 287 301 246 329 336 317 353 360 351 339 324 333 336 336 332 330 332 334 335 336 336 334 334 334 333 334 332 326 319 320 320 319
272 274 266 269 263 265 270 272 268 266 267 289 17 53 291 329 306 292 341 340 337 331 324 310 314 319 325 326 326 326 322 322 324 325 327 329 328 326 326 326 324 314 301 307
269 277 290 267 249 259 266 265 268 273 295 80 53 290 285 282 289 266 317 329 329 325 320 313 310 319 321 319 316 314 311 310 314 316 317 318 320 321 322 322 321 320 316 308
271 274 260 272 290 270 271 286 16 121 141 180 273 299 279 273 285 263 284 312 323 321 317 315 310 313 315 316 313 308 305 302 304 306 306 308 310 312 313 313 314 313 313 310
257 258 278 290 286 264 245 272 176 152 170 264 291 291 292 283 285 268 270 296 315 322 316 315 315 315 315 314 313 310 306 304 303 302 299 299 300 302 304 305 305 305 305 306
237 261 268 301 93 73 97 272 183 189 281 293 285 286 299 313 289 285 270 289 305 312 311 310 311 312 311 311 311 309 309 306 304 301 298 296 294 293 294 295 298 299 298 297
245 258 267 237 140 138 229 305 190 265 279 279 263 272 291 295 285 284 284 287 299 308 308 308 310 310 308 308 306 307 304 302 300 298 298 296 296 293 291 290 289 289 291 291
196 250 269 135 124 213 255 297 294 288 285 285 279 283 283 291 294 291 287 295 303 305 304 305 307 308 307 305 307 304 300 297 296 295 293 293 293 292 291 289 287 284 284 285
212 251 278 196 248 264 285 284 289 290 294 284 279 277 288 291 286 289 297 300 303 305 306 307 309 310 306 305 303 300 298 296 295 293 291 290 288 288 286 287 286 284 283 281
268 257 260 266 270 276 282 281 287 287 291 286 276 281 287 290 292 298 302 306 308 309 309 309 310 310 307 305 305 302 299 298 297 295 293 290 286 282 281 279 278 276 275 273
253 262 275 269 267 268 273 282 278 279 278 277 279 287 291 294 300 304 304 307 309 312 312 311 313 312 313 311 311 308 305 301 299 296 294 292 286 283 279 275 272 274 271 269
254 265 259 268 272 277 276 271 262 271 271 275 283 289 296 300 303 304 308 312 314 314 315 318 318 315 317 319 317 312 304 301 298 296 294 292 290 288 284 278 275 271 269 267
251 262 267 268 271 273 268 265 260 264 270 278 287 292 297 301 304 309 314 317 318 319 321 321 321 321 321 318 314 309 306 306 302 296 292 290 288 287 288 291 284 278 272 267
258 265 265 260 252 266 263 254 257 265 275 280 285 295 300 304 309 315 318 321 321 322 325 329 325 319 327 322 318 315 314 312 308 301 295 292 289 287 286 286 288 289 286 271
265 260 257 262 262 253 248 256 267 275 283 288 293 300 304 310 315 318 320 322 323 328 335 329 327 334 333 327 321 317 315 312 309 306 303 299 294 289 285 284 283 285 293 292
263 258 257 250 246 247 249 256 267 278 282 288 299 306 311 315 316 317 324 327 332 335 335 335 339 340 335 328 323 323 315 311 312 309 306 303 299 291 286 283 283 283 288 292
239 241 243 240 236 243 256 268 277 284 289 296 303 308 312 316 318 322 328 332 335 335 341 346 342 340 337 334 328 325 320 319 322 318 314 312 310 302 302 299 296 293 291 299
249 250 251 248 250 257 264 274 281 286 293 300 304 309 313 317 317 322 329 335 336 344 356 352 348 347 342 341 340 330 326 329 333 333 333 331 321 315 313 309 309 310 312 301
244 245 249 252 257 266 275 281 285 290 297 302 305 308 311 315 314 319 328 336 340 349 359 357 356 354 354 353 344 342 343 344 348 350 349 347 346 342 334 325 319 310 309 312
245 250 259 267 274 281 286 290 293 295 300 299 301 303 306 308 305 315 325 337 347 352 355 359 0 4 3 0 358 360 358 0 1 3 5 5 5 3 1 357 352 344 344 337
247 259 270 279 285 292 295 295 295 297 298 297 298 299 299 296 298 312 321 338 354 358 1 6 4 10 10 10 14 16 16 17 18 18 19 21 22 24 25 23 23 27 36 47
270 283 292 296 296 296 297 298 297 298 299 299 293 288 282 279 286 299 319 340 354 359 8 7 8 14 12 19 27 30 32 32 34 35 35 34 34 36 36 35 37 43 53 69
292 298 300 303 308 310 309 305 301 300 298 293 282 271 267 272 280 309 325 342 356 3 5 7 10 14 15 24 30 35 39 41 43 46 47 46 44 44 44 46 52 61 73 83
304 313 314 311 311 313 313 309 302 299 294 286 273 261 260 264 260 299 326 350 358 360 360 4 8 13 17 24 29 36 41 44 48 50 53 56 59 60 60 61 66 73 80 86
309 316 324 326 323 317 314 315 314 307 305 294 265 254 260 265 273 303 335 346 350 352 356 360 5 11 17 23 28 33 37 40 43 48 53 57 61 63 67 73 76 78 81 85
352 347 342 339 337 335 333 331 329 328 332 317 275 275 273 284 304 321 333 339 343 347 350 358 4 9 12 16 21 26 30 33 36 41 45 50 55 61 66 69 73 76 81 84
26 9 3 356 352 354 349 344 342 344 336 344 294 304 305 312 319 327 333 336 339 344 349 355 0 3 6 8 11 14 18 22 25 28 30 34 39 45 50 54 58 62 67 72